Weather History for Daggett-Barstow, CA

Change the Weather History Date:

Wednesday, November 21, 2012

  Actual Average Record
Temperature  
Mean Temperature 62 °F -  
Max Temperature 77 °F 65 °F 84 °F (1950)
Min Temperature 46 °F 40 °F 21 °F (1956)
Degree Days  
Heating Degree Days 4    
Growing Degree Days 12 (Base 50)    
Moisture  
Dew Point 34 °F    
Average Humidity 39    
Maximum Humidity 56    
Minimum Humidity 15    
Precipitation  
Precipitation 0.00 in - - ()
Sea Level Pressure  
Sea Level Pressure 30.00 in    
Wind  
Wind Speed 12 mph (West)    
Max Wind Speed 23 mph    
Max Gust Speed 28 mph    
Visibility 10 miles    
Events      
Averages and records for this station are not official NWS values.
T = Trace of Precipitation, MM = Missing Value Source: NWS Daily Summary

Daily Weather History Graph

Daily Weather History Graph

Search for Another Location

Airport:

Trip Planner

Search our weather history database for the weather conditions in past years. The results will help you decide how hot, cold, wet, or windy it might be!

Date:

Astronomy

Nov. 21, 2012 Rise Set
Actual Time 6:27 AM PST 4:38 PM PST
Civil Twilight 6:00 AM PST 5:05 PM PST
Nautical Twilight 5:29 AM PST 5:36 PM PST
Astronomical Twilight 4:59 AM PST 6:06 PM PST
Moon 12:44 PM PST 12:05 AM PST
Length of Visible Light 11h 05m
Length of Day
10h 10m
Waxing Gibbous, 63% of the Moon is Illuminated
Nov 21
Waxing Gibbous
Nov 28
Full
Dec 6
Last Quarter
Dec 13
New
Dec 19
First Quarter

Hourly Weather History & Observations

Time (PST) Temp. Dew Point Humidity Pressure Visibility Wind Dir Wind Speed Gust Speed Precip Events Conditions
12:50 AM 50.0 °F 33.1 °F 52% 30.04 in 10.0 mi West 10.4 mph - N/A   Clear
1:50 AM 51.1 °F 32.0 °F 48% 30.03 in 10.0 mi West 10.4 mph - N/A   Clear
2:50 AM 50.0 °F 32.0 °F 50% 30.02 in 10.0 mi WSW 11.5 mph - N/A   Clear
3:50 AM 46.9 °F 32.0 °F 56% 30.03 in 10.0 mi West 10.4 mph - N/A   Clear
4:50 AM 46.9 °F 32.0 °F 56% 30.04 in 10.0 mi West 9.2 mph - N/A   Clear
5:50 AM 48.0 °F 32.0 °F 54% 30.04 in 10.0 mi West 6.9 mph - N/A   Clear
6:50 AM 48.0 °F 32.0 °F 54% 30.06 in 10.0 mi WSW 9.2 mph - N/A   Clear
10:50 AM 69.1 °F 36.0 °F 30% 30.02 in 10.0 mi WNW 8.1 mph - N/A   Clear
11:50 AM 72.0 °F 34.0 °F 25% 29.99 in 10.0 mi WNW 12.7 mph - N/A   Clear
12:50 PM 75.9 °F 25.0 °F 15% 29.97 in 10.0 mi West 15.0 mph 23.0 mph N/A   Clear
1:50 PM 77.0 °F 30.9 °F 19% 29.94 in 10.0 mi West 23.0 mph 27.6 mph N/A   Clear
2:50 PM 77.0 °F 34.0 °F 21% 29.92 in 10.0 mi West 21.9 mph - N/A   Clear
3:50 PM 75.0 °F 35.1 °F 23% 29.94 in 10.0 mi West 16.1 mph 24.2 mph N/A   Clear
4:50 PM 71.1 °F 37.9 °F 30% 29.95 in 10.0 mi WSW 9.2 mph - N/A   Clear
5:50 PM 69.1 °F 36.0 °F 30% 29.96 in 10.0 mi WSW 13.8 mph - N/A   Clear
6:50 PM 66.0 °F 37.0 °F 34% 29.99 in 10.0 mi West 9.2 mph - N/A   Clear
7:50 PM 63.0 °F 39.0 °F 41% 29.99 in 10.0 mi West 15.0 mph - N/A   Clear
8:50 PM 62.1 °F 39.0 °F 43% 30.02 in 10.0 mi West 11.5 mph - N/A   Clear
9:50 PM 57.0 °F 39.0 °F 51% 30.03 in 10.0 mi NW 11.5 mph - N/A   Clear
11:50 PM 55.0 °F 39.0 °F 55% 30.02 in 10.0 mi WNW 11.5 mph - N/A   Clear